sat.trackr.live / text

‹ back to catalog

HYLAS 2

NORAD 38741 · 2012-043B

PAYLOAD ACTIVE UNKNOWN

§ Identity

Operator
Country
UK
Launch date
2012-08-02
Launch site
FRGUI
Launch vehicle
Mass (kg)
RCS (m²)
5.01

Purposes: comms

External: N2YO · Heavens-Above · Gunter

§ Orbital elements

Epoch: 2026-09-13T00:03:39.131136Z

Period
1,432.51 min
Inclination
2.6469°
Eccentricity
0.0003440
Mean motion
1.00522821 rev/d
Perigee alt
35,701.9 km
Apogee alt
35,730.8 km
Semi-major
42,094.5 km
B*
0.0000e+0
RAAN
79.9044°
Arg perigee
156.1999°
Mean anomaly
94.1421°
Rev number
5,165

§ Raw data

HYLAS 21 38741U 12043B   26256.00253624 -.00000143  00000+0  00000+0 0  99932 38741   2.6469  79.9044 0003440 156.1999  94.1421  1.00522821 51655

JSON: /api/v1/satellites/38741 · /tle

For live sub-satellite position, see the globe view (requires WebGL).

§ Visibility from observer

Set your observer location to see the next 7 days of passes ≥ 10°. The values pass through the URL so the page stays shareable.

No JS? Fill the form by hand. The geolocation button needs JavaScript.